Home   Weather   Biel   Past weeks

Flag for Switzerland Past Weather in Biel, Switzerland — Yesterday and Last 2 Weeks

Now
51 °F

Cool.


Feels Like: 48 °F
Forecast: 42 / 53 °F
Wind: 8 mph from West

Location: Grenchen

Current Time: Feb 21, 2017 at 8:00:34 pm

Latest Report: Feb 21, 2017 at 7:00 pm


Visibility: N/A

Pressure: 30.19 "Hg

Humidity: 78%

Dew Point: 44 °F

Location of BielLocation

Past Weather in Biel — Graph

°F

Biel Temperature Yesterday

Maximum temperature yesterday: 51 °F (at 3:00 pm)
Minimum temperature yesterday: 28 °F (at 7:00 am)
Average temperature yesterday: 41 °F

High & Low Weather Summary for the Past Weeks

 TemperatureHumidityPressure
High53 °F (Feb 16, 4:00 pm)100% (Feb 6, 6:00 pm)30.70 "Hg (Feb 6, 6:00 pm)
Low25 °F (Feb 15, 4:00 am)55% (Feb 16, 4:00 pm)30.07 "Hg (Feb 8, 4:00 am)
Average36 °F89%30.31 "Hg
* Reported Feb 6 6:00 pm — Feb 21 6:00 pm, Biel, Weather by CustomWeather, © 2017

Note: Actual official high and low records may vary slightly from our data, if they occured in-between our weather recording intervals... More about our weather records

Advertising

Biel Weather History for the Previous 24 Hours

Scroll right to see more
 ConditionsComfort  
Time TempWeatherWind HumidityBarometerVisibility
6:00 pm
Tue, Feb 21
52 °FCool.7 mph76%30.17 "HgN/A
5:00 pm53 °FCool.6 mph74%30.16 "HgN/A
4:00 pm53 °FCool.7 mph73%30.17 "HgN/A
3:00 pm53 °FCool.12 mph71%30.17 "HgN/A
2:00 pm53 °FCool.10 mph72%30.18 "HgN/A
1:00 pm51 °FCool.10 mph74%30.20 "HgN/A
12:00 pm49 °FCool.9 mph77%30.22 "HgN/A
11:00 am47 °FCool.8 mph83%30.22 "HgN/A
10:00 am46 °FCool.6 mph86%30.23 "HgN/A
9:00 am45 °FCool.10 mph87%30.23 "HgN/A
8:00 am44 °FQuite cool.3 mph86%30.23 "HgN/A
7:00 am44 °FQuite cool.3 mph87%30.22 "HgN/A
6:00 am44 °FQuite cool.5 mph90%30.22 "HgN/A
5:00 am45 °FQuite cool.6 mph84%30.23 "HgN/A
4:00 am44 °FQuite cool.3 mph87%30.24 "HgN/A
3:00 am44 °FQuite cool.3 mph86%30.26 "HgN/A
2:00 am45 °FQuite cool.5 mph82%30.27 "HgN/A
1:00 am45 °FQuite cool.7 mph86%30.27 "HgN/A
12:00 am44 °FQuite cool.6 mph89%30.27 "HgN/A
11:00 pm
Mon, Feb 20
45 °FCool.8 mph84%30.27 "HgN/A
10:00 pm45 °FQuite cool.6 mph85%30.27 "HgN/A
9:00 pm46 °FCool.6 mph80%30.26 "HgN/A
8:00 pm47 °FCool.5 mph73%30.26 "HgN/A
Weather by CustomWeather, © 2017

See weather overviewHow to use our weather pages